Time,TemperatureF,DewpointF,PressureIn,WindDirection,WindDirectionDegrees,WindSpeedMPH,WindSpeedGustMPH,Humidity,HourlyPrecipIn,Conditions,Clouds,dailyrainin,SoftwareType,DateUTC
2013-07-27 00:00:00,64.0,62.8,30.00,SSE,149,0.0,0.0,96,0.00,,,0.00,Wunderground v.1.15,2013-07-27 05:00:00,
2013-07-27 00:05:00,64.0,62.8,30.00,SSE,149,0.0,0.0,96,0.00,,,0.00,Wunderground v.1.15,2013-07-27 05:05:00,
2013-07-27 00:10:00,64.2,63.3,30.00,SSE,149,0.0,0.0,97,0.00,,,0.00,Wunderground v.1.15,2013-07-27 05:10:00,
2013-07-27 00:15:00,64.2,63.3,30.00,SSE,149,0.0,0.0,97,0.00,,,0.00,Wunderground v.1.15,2013-07-27 05:15:00,
2013-07-27 00:20:00,64.3,63.4,30.00,SSE,149,0.0,0.0,97,0.00,,,0.00,Wunderground v.1.15,2013-07-27 05:20:00,
2013-07-27 00:25:00,64.3,63.4,30.00,SSE,149,0.0,0.0,97,0.00,,,0.00,Wunderground v.1.15,2013-07-27 05:25:00,
2013-07-27 00:30:00,64.5,63.6,30.00,SSE,149,0.0,0.0,97,0.00,,,0.00,Wunderground v.1.15,2013-07-27 05:30:00,
2013-07-27 00:35:00,64.5,63.6,29.99,SSE,149,0.0,0.0,97,0.00,,,0.00,Wunderground v.1.15,2013-07-27 05:35:00,
2013-07-27 00:40:00,64.5,63.6,29.99,SSE,149,0.0,0.0,97,0.00,,,0.00,Wunderground v.1.15,2013-07-27 05:40:00,
2013-07-27 00:45:00,64.3,63.4,29.99,SSE,149,0.0,0.0,97,0.00,,,0.00,Wunderground v.1.15,2013-07-27 05:45:00,
2013-07-27 00:50:00,64.3,63.4,29.99,SSE,149,0.0,0.0,97,0.00,,,0.00,Wunderground v.1.15,2013-07-27 05:50:00,
2013-07-27 00:55:00,64.3,63.4,29.99,SSE,149,0.0,0.0,97,0.00,,,0.00,Wunderground v.1.15,2013-07-27 05:55:00,
2013-07-27 01:00:00,64.3,63.4,29.99,SSE,149,0.0,0.0,97,0.00,,,0.00,Wunderground v.1.15,2013-07-27 06:00:00,
2013-07-27 01:05:00,64.3,63.4,29.99,SSE,149,0.0,0.0,97,0.00,,,0.00,Wunderground v.1.15,2013-07-27 06:05:00,
2013-07-27 01:10:00,64.3,63.4,29.99,SSE,149,0.0,0.0,97,0.00,,,0.00,Wunderground v.1.15,2013-07-27 06:10:00,
2013-07-27 01:15:00,64.3,63.4,29.99,SSE,149,0.0,0.0,97,0.00,,,0.00,Wunderground v.1.15,2013-07-27 06:15:00,
2013-07-27 01:20:00,64.3,63.4,29.99,SSE,149,0.0,0.0,97,0.00,,,0.00,Wunderground v.1.15,2013-07-27 06:20:00,
2013-07-27 01:25:00,64.3,63.4,29.99,SSE,149,0.0,0.0,97,0.00,,,0.00,Wunderground v.1.15,2013-07-27 06:25:00,
2013-07-27 01:30:00,64.5,63.6,29.99,SSE,149,0.0,0.0,97,0.00,,,0.00,Wunderground v.1.15,2013-07-27 06:30:00,
2013-07-27 01:35:00,64.5,63.6,29.99,SSE,149,0.0,0.0,97,0.00,,,0.00,Wunderground v.1.15,2013-07-27 06:35:00,
2013-07-27 01:40:00,64.7,63.8,29.99,SSE,149,0.0,0.0,97,0.00,,,0.00,Wunderground v.1.15,2013-07-27 06:40:00,
2013-07-27 01:45:00,64.7,63.8,29.99,SSE,149,0.0,0.0,97,0.00,,,0.00,Wunderground v.1.15,2013-07-27 06:45:00,
2013-07-27 01:50:00,64.7,63.8,29.99,SSE,149,0.0,0.0,97,0.00,,,0.00,Wunderground v.1.15,2013-07-27 06:50:00,
2013-07-27 01:55:00,64.8,63.9,29.99,SSE,149,0.0,0.0,97,0.00,,,0.00,Wunderground v.1.15,2013-07-27 06:55:00,
2013-07-27 02:00:00,64.8,63.9,29.99,SSE,149,0.0,0.0,97,0.00,,,0.00,Wunderground v.1.15,2013-07-27 07:00:00,
2013-07-27 02:05:00,64.8,63.9,29.98,SSE,149,0.0,0.0,97,0.00,,,0.00,Wunderground v.1.15,2013-07-27 07:05:00,
2013-07-27 02:10:00,65.0,64.1,29.98,SSE,149,0.0,0.0,97,0.00,,,0.00,Wunderground v.1.15,2013-07-27 07:10:00,
2013-07-27 02:15:00,65.0,64.1,29.98,SSE,149,0.0,0.0,97,0.00,,,0.00,Wunderground v.1.15,2013-07-27 07:15:00,
2013-07-27 02:20:00,65.2,64.3,29.97,SSE,149,0.0,0.0,97,0.00,,,0.00,Wunderground v.1.15,2013-07-27 07:20:00,
2013-07-27 02:25:00,65.2,64.3,29.97,SSE,149,0.0,0.0,97,0.00,,,0.00,Wunderground v.1.15,2013-07-27 07:25:00,
2013-07-27 02:30:00,65.3,64.4,29.97,SSE,149,0.0,0.0,97,0.00,,,0.00,Wunderground v.1.15,2013-07-27 07:30:00,
2013-07-27 02:35:00,65.3,64.4,29.97,SSE,149,0.0,0.0,97,0.00,,,0.00,Wunderground v.1.15,2013-07-27 07:35:00,
2013-07-27 02:40:00,65.3,64.4,29.97,SSE,149,0.0,0.0,97,0.00,,,0.00,Wunderground v.1.15,2013-07-27 07:40:00,
2013-07-27 02:45:00,65.5,64.6,29.97,SSE,149,0.0,0.0,97,0.00,,,0.00,Wunderground v.1.15,2013-07-27 07:45:00,
2013-07-27 02:50:00,65.5,64.6,29.97,SSE,149,0.0,0.0,97,0.00,,,0.00,Wunderground v.1.15,2013-07-27 07:50:00,
2013-07-27 02:55:00,65.5,64.6,29.97,SSE,149,0.0,0.0,97,0.00,,,0.00,Wunderground v.1.15,2013-07-27 07:55:00,
2013-07-27 03:00:00,65.6,64.7,29.97,SSE,149,0.0,0.0,97,0.00,,,0.00,Wunderground v.1.15,2013-07-27 08:00:00,
2013-07-27 03:05:00,65.6,64.7,29.97,SSE,149,0.0,0.0,97,0.00,,,0.00,Wunderground v.1.15,2013-07-27 08:05:00,
2013-07-27 03:10:00,65.6,64.7,29.97,SSE,149,0.0,0.0,97,0.00,,,0.00,Wunderground v.1.15,2013-07-27 08:10:00,
2013-07-27 03:15:00,65.8,64.9,29.97,SSE,149,0.0,0.0,97,0.00,,,0.00,Wunderground v.1.15,2013-07-27 08:15:00,
2013-07-27 03:20:00,65.8,64.9,29.97,SSE,149,0.0,0.0,97,0.00,,,0.00,Wunderground v.1.15,2013-07-27 08:20:00,
2013-07-27 03:25:00,65.8,64.9,29.97,SSE,149,0.0,0.0,97,0.00,,,0.00,Wunderground v.1.15,2013-07-27 08:25:00,
2013-07-27 03:30:00,65.8,64.9,29.97,North,355,0.0,0.0,97,0.00,,,0.00,Wunderground v.1.15,2013-07-27 08:30:00,
2013-07-27 03:35:00,66.0,65.1,29.97,North,355,1.0,2.0,97,0.00,,,0.00,Wunderground v.1.15,2013-07-27 08:35:00,
2013-07-27 03:40:00,66.1,65.2,29.97,NNW,344,2.0,3.0,97,0.00,,,0.00,Wunderground v.1.15,2013-07-27 08:40:00,
2013-07-27 03:45:00,65.8,64.9,29.97,NNW,335,3.0,3.0,97,0.00,,,0.00,Wunderground v.1.15,2013-07-27 08:45:00,
2013-07-27 03:50:00,65.6,64.7,29.98,NNW,342,3.0,3.0,97,0.00,,,0.00,Wunderground v.1.15,2013-07-27 08:50:00,
2013-07-27 03:55:00,65.6,64.7,29.98,NNW,346,2.0,3.0,97,0.00,,,0.00,Wunderground v.1.15,2013-07-27 08:55:00,
2013-07-27 04:00:00,65.5,64.6,29.98,NNW,346,1.0,1.0,97,0.00,,,0.00,Wunderground v.1.15,2013-07-27 09:00:00,
2013-07-27 04:05:00,65.3,64.4,29.98,NNW,346,0.0,1.0,97,0.00,,,0.00,Wunderground v.1.15,2013-07-27 09:05:00,
2013-07-27 04:10:00,65.2,64.3,29.98,NNW,346,0.0,0.0,97,0.00,,,0.00,Wunderground v.1.15,2013-07-27 09:10:00,
2013-07-27 04:15:00,65.0,64.1,29.98,NNW,346,0.0,0.0,97,0.00,,,0.00,Wunderground v.1.15,2013-07-27 09:15:00,
2013-07-27 04:20:00,64.8,63.9,29.98,NNW,346,0.0,0.0,97,0.00,,,0.00,Wunderground v.1.15,2013-07-27 09:20:00,
2013-07-27 04:25:00,64.8,63.9,29.98,NNW,346,0.0,0.0,97,0.00,,,0.00,Wunderground v.1.15,2013-07-27 09:25:00,
2013-07-27 04:30:00,64.3,63.4,29.98,NNW,346,0.0,0.0,97,0.00,,,0.00,Wunderground v.1.15,2013-07-27 09:30:00,
2013-07-27 04:35:00,64.0,63.1,29.98,NNW,346,0.0,0.0,97,0.00,,,0.00,Wunderground v.1.15,2013-07-27 09:35:00,
2013-07-27 04:40:00,63.9,63.0,29.98,NNW,346,0.0,0.0,97,0.00,,,0.00,Wunderground v.1.15,2013-07-27 09:40:00,
2013-07-27 04:50:00,63.5,62.6,29.99,NNW,346,0.0,0.0,97,0.00,,,0.00,Wunderground v.1.15,2013-07-27 09:50:00,
2013-07-27 04:55:00,63.4,62.5,29.99,NNW,346,0.0,0.0,97,0.00,,,0.00,Wunderground v.1.15,2013-07-27 09:55:00,
2013-07-27 05:00:00,63.5,62.6,29.99,NNW,346,0.0,1.0,97,0.00,,,0.00,Wunderground v.1.15,2013-07-27 10:00:00,
2013-07-27 05:10:00,64.0,63.1,29.99,NNW,346,0.0,1.0,97,0.00,,,0.00,Wunderground v.1.15,2013-07-27 10:10:00,
2013-07-27 05:15:00,64.2,63.3,29.99,NNW,338,0.0,1.0,97,0.00,,,0.00,Wunderground v.1.15,2013-07-27 10:15:00,
2013-07-27 05:20:00,64.3,63.4,29.99,NNW,338,1.0,1.0,97,0.00,,,0.00,Wunderground v.1.15,2013-07-27 10:20:00,
2013-07-27 05:30:00,64.2,63.3,29.99,NNW,348,1.0,1.0,97,0.00,,,0.00,Wunderground v.1.15,2013-07-27 10:30:00,
2013-07-27 05:35:00,64.2,63.3,29.99,NNW,348,1.0,1.0,97,0.00,,,0.00,Wunderground v.1.15,2013-07-27 10:35:00,
2013-07-27 05:40:00,64.3,63.4,29.99,NNW,348,1.0,1.0,97,0.00,,,0.00,Wunderground v.1.15,2013-07-27 10:40:00,
2013-07-27 05:44:00,63.7,62.8,29.98,NNW,346,0.0,0.0,97,0.00,,,0.00,Wunderground v.1.15,2013-07-27 10:44:00,
2013-07-27 05:45:00,64.3,63.4,29.99,NNW,348,0.0,1.0,97,0.00,,,0.00,Wunderground v.1.15,2013-07-27 10:45:00,
2013-07-27 05:50:00,64.3,63.4,29.99,NNW,348,0.0,1.0,97,0.00,,,0.00,Wunderground v.1.15,2013-07-27 10:50:00,
2013-07-27 06:00:00,64.0,63.1,29.99,NNW,344,1.0,2.0,97,0.00,,,0.00,Wunderground v.1.15,2013-07-27 11:00:00,
2013-07-27 06:04:00,63.7,62.8,29.99,NNW,346,0.0,1.0,97,0.00,,,0.00,Wunderground v.1.15,2013-07-27 11:04:00,
2013-07-27 06:10:00,64.0,63.1,29.99,NNW,344,1.0,1.0,97,0.00,,,0.00,Wunderground v.1.15,2013-07-27 11:10:00,
2013-07-27 06:24:00,64.3,63.4,29.99,NNW,338,0.0,1.0,97,0.00,,,0.00,Wunderground v.1.15,2013-07-27 11:24:00,
2013-07-27 06:25:00,64.2,63.3,29.99,NNW,339,1.0,1.0,97,0.00,,,0.00,Wunderground v.1.15,2013-07-27 11:25:00,
2013-07-27 06:30:00,64.2,63.3,29.99,NNW,339,1.0,4.0,97,0.00,,,0.00,Wunderground v.1.15,2013-07-27 11:30:00,
2013-07-27 06:40:00,64.5,63.6,30.00,NNW,339,0.0,0.0,97,0.00,,,0.00,Wunderground v.1.15,2013-07-27 11:40:00,
2013-07-27 06:54:00,64.3,63.4,29.99,NNW,348,0.0,1.0,97,0.00,,,0.00,Wunderground v.1.15,2013-07-27 11:54:00,
2013-07-27 07:00:00,64.7,63.8,30.00,NNW,340,2.0,2.0,97,0.00,,,0.00,Wunderground v.1.15,2013-07-27 12:00:00,
2013-07-27 07:04:00,63.9,63.0,29.99,North,5,1.0,2.0,97,0.00,,,0.00,Wunderground v.1.15,2013-07-27 12:04:00,
2013-07-27 07:14:00,64.0,63.1,29.99,NNW,345,1.0,3.0,97,0.00,,,0.00,Wunderground v.1.15,2013-07-27 12:14:00,
2013-07-27 07:15:00,64.7,63.8,29.99,NNW,340,2.0,2.0,97,0.00,,,0.00,Wunderground v.1.15,2013-07-27 12:15:00,
2013-07-27 07:34:00,64.3,63.4,30.00,NNW,339,1.0,4.0,97,0.00,,,0.00,Wunderground v.1.15,2013-07-27 12:34:00,
2013-07-27 07:44:00,64.7,63.8,30.00,North,351,1.0,1.0,97,0.00,,,0.00,Wunderground v.1.15,2013-07-27 12:44:00,
2013-07-27 07:49:00,64.7,63.8,30.00,North,355,2.0,2.0,97,0.00,,,0.00,Wunderground v.1.15,2013-07-27 12:49:00,
2013-07-27 08:00:00,65.8,63.7,30.00,North,5,4.0,4.0,93,0.00,,,0.00,Wunderground v.1.15,2013-07-27 13:00:00,
2013-07-27 08:04:00,64.7,63.8,29.99,North,5,1.0,3.0,97,0.00,,,0.00,Wunderground v.1.15,2013-07-27 13:04:00,
2013-07-27 08:05:00,66.1,63.7,30.01,NNW,346,2.0,4.0,92,0.00,,,0.00,Wunderground v.1.15,2013-07-27 13:05:00,
2013-07-27 08:09:00,64.5,63.6,29.99,North,11,2.0,2.0,97,0.00,,,0.00,Wunderground v.1.15,2013-07-27 13:09:00,
2013-07-27 08:19:00,65.0,64.1,30.00,North,355,1.0,1.0,97,0.00,,,0.00,Wunderground v.1.15,2013-07-27 13:19:00,
2013-07-27 08:24:00,65.2,64.3,30.00,NNW,339,2.0,2.0,97,0.00,,,0.00,Wunderground v.1.15,2013-07-27 13:24:00,
2013-07-27 08:34:00,65.3,64.4,30.00,NNW,347,1.0,2.0,97,0.00,,,0.00,Wunderground v.1.15,2013-07-27 13:34:00,
2013-07-27 08:44:00,66.0,65.1,30.00,NNW,346,1.0,1.0,97,0.00,,,0.00,Wunderground v.1.15,2013-07-27 13:44:00,
2013-07-27 08:54:00,65.8,64.3,30.00,NNW,348,3.0,5.0,95,0.00,,,0.00,Wunderground v.1.15,2013-07-27 13:54:00,
2013-07-27 09:09:00,66.6,63.6,30.01,NNW,342,2.0,5.0,90,0.00,,,0.00,Wunderground v.1.15,2013-07-27 14:09:00,
2013-07-27 09:14:00,66.9,63.2,30.01,NNW,339,3.0,6.0,88,0.00,,,0.00,Wunderground v.1.15,2013-07-27 14:14:00,
2013-07-27 09:24:00,67.1,61.4,30.01,NNE,16,2.0,3.0,82,0.00,,,0.00,Wunderground v.1.15,2013-07-27 14:24:00,
2013-07-27 09:29:00,67.4,61.7,30.01,NNE,16,1.0,1.0,82,0.00,,,0.00,Wunderground v.1.15,2013-07-27 14:29:00,
2013-07-27 09:39:00,68.3,61.2,30.01,NNW,344,4.0,4.0,78,0.00,,,0.00,Wunderground v.1.15,2013-07-27 14:39:00,
2013-07-27 09:44:00,68.6,60.7,30.01,NNE,17,4.0,4.0,76,0.00,,,0.00,Wunderground v.1.15,2013-07-27 14:44:00,
2013-07-27 09:54:00,68.8,59.4,30.02,North,350,3.0,6.0,72,0.00,,,0.00,Wunderground v.1.15,2013-07-27 14:54:00,
2013-07-27 10:04:00,69.3,59.9,30.02,NNW,348,3.0,4.0,72,0.00,,,0.00,Wunderground v.1.15,2013-07-27 15:04:00,
2013-07-27 10:09:00,69.8,60.0,30.02,NNE,13,2.0,4.0,71,0.00,,,0.00,Wunderground v.1.15,2013-07-27 15:09:00,
2013-07-27 10:19:00,70.8,60.1,30.02,NNW,342,3.0,4.0,69,0.00,,,0.00,Wunderground v.1.15,2013-07-27 15:19:00,
2013-07-27 10:29:00,71.6,60.1,30.02,NNW,344,3.0,9.0,67,0.00,,,0.00,Wunderground v.1.15,2013-07-27 15:29:00,
2013-07-27 10:34:00,71.8,59.4,30.02,NNW,348,3.0,9.0,65,0.00,,,0.00,Wunderground v.1.15,2013-07-27 15:34:00,
2013-07-27 10:44:00,72.1,59.7,30.02,North,355,3.0,3.0,65,0.00,,,0.00,Wunderground v.1.15,2013-07-27 15:44:00,
2013-07-27 10:54:00,72.5,60.1,30.01,NNW,340,2.0,5.0,65,0.00,,,0.00,Wunderground v.1.15,2013-07-27 15:54:00,
2013-07-27 10:59:00,72.5,59.6,30.01,NNW,335,2.0,3.0,64,0.00,,,0.00,Wunderground v.1.15,2013-07-27 15:59:00,
2013-07-27 11:09:00,72.3,58.5,30.01,NNW,346,1.0,1.0,62,0.00,,,0.00,Wunderground v.1.15,2013-07-27 16:09:00,
2013-07-27 11:19:00,73.0,59.7,30.01,North,350,3.0,4.0,63,0.00,,,0.00,Wunderground v.1.15,2013-07-27 16:19:00,
2013-07-27 11:24:00,73.0,58.8,30.01,North,5,4.0,4.0,61,0.00,,,0.00,Wunderground v.1.15,2013-07-27 16:24:00,
2013-07-27 11:34:00,72.3,58.5,30.00,NNW,343,4.0,6.0,62,0.00,,,0.00,Wunderground v.1.15,2013-07-27 16:34:00,
2013-07-27 11:44:00,73.2,60.3,30.00,NNW,344,3.0,4.0,64,0.00,,,0.00,Wunderground v.1.15,2013-07-27 16:44:00,
2013-07-27 11:54:00,73.9,59.6,30.02,NNW,348,4.0,10.0,61,0.00,,,0.00,Wunderground v.1.15,2013-07-27 16:54:00,
2013-07-27 12:04:00,73.3,58.1,30.01,NNW,346,3.0,3.0,59,0.00,,,0.00,Wunderground v.1.15,2013-07-27 17:04:00,
2013-07-27 12:14:00,72.8,58.6,30.01,North,355,2.0,4.0,61,0.00,,,0.00,Wunderground v.1.15,2013-07-27 17:14:00,
2013-07-27 12:19:00,72.8,59.0,30.00,NNW,344,3.0,3.0,62,0.00,,,0.00,Wunderground v.1.15,2013-07-27 17:19:00,
2013-07-27 12:24:00,72.8,58.6,30.00,NNW,347,3.0,5.0,61,0.00,,,0.00,Wunderground v.1.15,2013-07-27 17:24:00,
2013-07-27 12:34:00,73.2,57.5,30.00,North,349,2.0,2.0,58,0.00,,,0.00,Wunderground v.1.15,2013-07-27 17:34:00,
2013-07-27 12:44:00,74.0,58.3,30.00,NNW,348,2.0,5.0,58,0.00,,,0.00,Wunderground v.1.15,2013-07-27 17:44:00,
2013-07-27 12:49:00,73.5,56.3,30.00,North,355,3.0,3.0,55,0.00,,,0.00,Wunderground v.1.15,2013-07-27 17:49:00,
2013-07-27 12:59:00,72.5,56.9,30.00,North,5,2.0,3.0,58,0.00,,,0.00,Wunderground v.1.15,2013-07-27 17:59:00,
2013-07-27 13:04:00,72.3,57.2,30.00,NNW,348,2.0,6.0,59,0.00,,,0.00,Wunderground v.1.15,2013-07-27 18:04:00,
2013-07-27 13:14:00,72.7,58.0,30.00,North,351,3.0,7.0,60,0.00,,,0.00,Wunderground v.1.15,2013-07-27 18:14:00,
2013-07-27 13:24:00,73.2,54.5,30.00,North,355,3.0,7.0,52,0.00,,,0.00,Wunderground v.1.15,2013-07-27 18:24:00,
2013-07-27 13:29:00,73.0,54.9,30.00,NE,36,1.0,1.0,53,0.00,,,0.00,Wunderground v.1.15,2013-07-27 18:29:00,
2013-07-27 13:39:00,72.8,56.2,30.00,North,355,1.0,1.0,56,0.00,,,0.00,Wunderground v.1.15,2013-07-27 18:39:00,
2013-07-27 13:49:00,72.8,58.1,30.00,NNW,348,2.0,7.0,60,0.00,,,0.00,Wunderground v.1.15,2013-07-27 18:49:00,
2013-07-27 13:59:00,74.0,56.3,30.00,North,350,4.0,7.0,54,0.00,,,0.00,Wunderground v.1.15,2013-07-27 18:59:00,
2013-07-27 14:09:00,74.7,57.5,29.99,NNW,339,3.0,3.0,55,0.00,,,0.00,Wunderground v.1.15,2013-07-27 19:09:00,
2013-07-27 14:14:00,74.9,56.6,29.99,North,355,2.0,7.0,53,0.00,,,0.00,Wunderground v.1.15,2013-07-27 19:14:00,
2013-07-27 14:24:00,75.4,57.1,29.98,NNW,345,2.0,7.0,53,0.00,,,0.00,Wunderground v.1.15,2013-07-27 19:24:00,
2013-07-27 14:34:00,75.3,56.5,29.97,NNW,348,4.0,7.0,52,0.00,,,0.00,Wunderground v.1.15,2013-07-27 19:34:00,
2013-07-27 14:39:00,75.3,58.5,29.97,NNW,347,2.0,2.0,56,0.00,,,0.00,Wunderground v.1.15,2013-07-27 19:39:00,
2013-07-27 14:49:00,75.4,59.1,29.96,NW,319,0.0,7.0,57,0.00,,,0.00,Wunderground v.1.15,2013-07-27 19:49:00,
2013-07-27 14:59:00,75.6,56.7,29.96,North,355,2.0,2.0,52,0.00,,,0.00,Wunderground v.1.15,2013-07-27 19:59:00,
2013-07-27 15:09:00,75.6,55.6,29.95,NNW,346,2.0,2.0,50,0.00,,,0.00,Wunderground v.1.15,2013-07-27 20:09:00,
2013-07-27 15:14:00,75.6,57.3,29.95,NNW,327,1.0,7.0,53,0.00,,,0.00,Wunderground v.1.15,2013-07-27 20:14:00,
2013-07-27 15:24:00,75.8,57.4,29.96,North,5,1.0,7.0,53,0.00,,,0.00,Wunderground v.1.15,2013-07-27 20:24:00,
2013-07-27 15:29:00,76.0,57.1,29.96,NNW,348,2.0,2.0,52,0.00,,,0.00,Wunderground v.1.15,2013-07-27 20:29:00,
2013-07-27 15:39:00,76.3,58.9,29.95,North,349,1.0,7.0,55,0.00,,,0.00,Wunderground v.1.15,2013-07-27 20:39:00,
2013-07-27 15:44:00,76.3,57.9,29.95,NNE,22,1.0,7.0,53,0.00,,,0.00,Wunderground v.1.15,2013-07-27 20:44:00,
2013-07-27 15:54:00,76.3,57.4,29.96,NNW,345,2.0,7.0,52,0.00,,,0.00,Wunderground v.1.15,2013-07-27 20:54:00,
2013-07-27 15:59:00,76.7,57.7,29.96,North,360,2.0,2.0,52,0.00,,,0.00,Wunderground v.1.15,2013-07-27 20:59:00,
2013-07-27 16:04:00,76.8,59.4,29.95,North,355,1.0,7.0,55,0.00,,,0.00,Wunderground v.1.15,2013-07-27 21:04:00,
2013-07-27 16:14:00,75.8,58.5,29.95,North,355,2.0,7.0,55,0.00,,,0.00,Wunderground v.1.15,2013-07-27 21:14:00,
2013-07-27 16:24:00,75.1,58.3,29.95,North,350,1.0,6.0,56,0.00,,,0.00,Wunderground v.1.15,2013-07-27 21:24:00,
2013-07-27 16:29:00,75.3,58.5,29.95,NNW,338,2.0,2.0,56,0.00,,,0.00,Wunderground v.1.15,2013-07-27 21:29:00,
2013-07-27 16:39:00,75.6,58.3,29.95,North,5,2.0,2.0,55,0.00,,,0.00,Wunderground v.1.15,2013-07-27 21:39:00,
2013-07-27 16:44:00,75.4,58.1,29.95,NNW,346,2.0,3.0,55,0.00,,,0.00,Wunderground v.1.15,2013-07-27 21:44:00,
2013-07-27 16:54:00,74.2,56.5,29.95,NNW,343,3.0,7.0,54,0.00,,,0.00,Wunderground v.1.15,2013-07-27 21:54:00,
2013-07-27 17:04:00,73.7,57.0,29.95,NNW,348,0.0,7.0,56,0.00,,,0.00,Wunderground v.1.15,2013-07-27 22:04:00,
2013-07-27 17:14:00,74.2,57.5,29.95,NNW,346,3.0,7.0,56,0.00,,,0.00,Wunderground v.1.15,2013-07-27 22:14:00,
2013-07-27 17:19:00,74.4,56.7,29.95,NNW,348,2.0,2.0,54,0.00,,,0.00,Wunderground v.1.15,2013-07-27 22:19:00,
2013-07-27 17:29:00,74.7,56.4,29.95,North,350,1.0,7.0,53,0.00,,,0.00,Wunderground v.1.15,2013-07-27 22:29:00,
2013-07-27 17:39:00,74.7,56.4,29.95,North,355,2.0,2.0,53,0.00,,,0.00,Wunderground v.1.15,2013-07-27 22:39:00,
2013-07-27 17:44:00,74.7,57.5,29.95,North,355,1.0,7.0,55,0.00,,,0.00,Wunderground v.1.15,2013-07-27 22:44:00,
2013-07-27 17:54:00,74.7,57.5,29.95,North,355,1.0,7.0,55,0.00,,,0.00,Wunderground v.1.15,2013-07-27 22:54:00,
2013-07-27 18:04:00,74.9,58.1,29.95,NNW,346,0.0,7.0,56,0.00,,,0.00,Wunderground v.1.15,2013-07-27 23:04:00,
2013-07-27 18:09:00,74.7,56.9,29.95,NNW,346,1.0,7.0,54,0.00,,,0.00,Wunderground v.1.15,2013-07-27 23:09:00,
2013-07-27 18:19:00,74.2,57.0,29.95,NNW,336,1.0,7.0,55,0.00,,,0.00,Wunderground v.1.15,2013-07-27 23:19:00,
2013-07-27 18:29:00,73.9,57.7,29.95,NNW,336,1.0,1.0,57,0.00,,,0.00,Wunderground v.1.15,2013-07-27 23:29:00,
2013-07-27 18:34:00,73.9,58.2,29.95,NNW,336,1.0,3.0,58,0.00,,,0.00,Wunderground v.1.15,2013-07-27 23:34:00,
2013-07-27 18:39:00,73.5,58.3,29.95,NNW,336,1.0,1.0,59,0.00,,,0.00,Wunderground v.1.15,2013-07-27 23:39:00,
2013-07-27 18:44:00,73.0,57.8,29.95,NNW,336,0.0,7.0,59,0.00,,,0.00,Wunderground v.1.15,2013-07-27 23:44:00,
2013-07-27 18:49:00,72.7,57.5,29.94,NNW,336,0.0,7.0,59,0.00,,,0.00,Wunderground v.1.15,2013-07-27 23:49:00,
2013-07-27 18:59:00,72.1,58.8,29.94,NNW,336,0.0,7.0,63,0.00,,,0.00,Wunderground v.1.15,2013-07-27 23:59:00,
2013-07-27 19:04:00,72.1,58.4,29.94,NNW,336,0.0,7.0,62,0.00,,,0.00,Wunderground v.1.15,2013-07-28 00:04:00,
2013-07-27 19:09:00,72.3,59.0,29.94,NNW,336,0.0,7.0,63,0.00,,,0.00,Wunderground v.1.15,2013-07-28 00:09:00,
2013-07-27 19:19:00,72.1,57.9,29.95,NNW,336,0.0,7.0,61,0.00,,,0.00,Wunderground v.1.15,2013-07-28 00:19:00,
2013-07-27 19:29:00,71.6,57.9,29.95,North,360,0.0,7.0,62,0.00,,,0.00,Wunderground v.1.15,2013-07-28 00:29:00,
2013-07-27 19:34:00,71.5,57.8,29.94,North,360,0.0,7.0,62,0.00,,,0.00,Wunderground v.1.15,2013-07-28 00:34:00,
2013-07-27 19:44:00,71.1,59.2,29.94,NNE,15,0.0,7.0,66,0.00,,,0.00,Wunderground v.1.15,2013-07-28 00:44:00,
2013-07-27 19:54:00,70.8,59.3,29.95,NNW,337,0.0,7.0,67,0.00,,,0.00,Wunderground v.1.15,2013-07-28 00:54:00,
2013-07-27 19:59:00,70.4,59.3,29.95,NNW,337,0.0,7.0,68,0.00,,,0.00,Wunderground v.1.15,2013-07-28 00:59:00,
2013-07-27 20:04:00,70.3,59.2,29.96,NNW,337,0.0,7.0,68,0.00,,,0.00,Wunderground v.1.15,2013-07-28 01:04:00,
2013-07-27 20:09:00,70.1,59.9,29.96,NNW,337,0.0,7.0,70,0.00,,,0.00,Wunderground v.1.15,2013-07-28 01:09:00,
2013-07-27 20:19:00,69.6,60.2,29.95,South,182,0.0,7.0,72,0.00,,,0.00,Wunderground v.1.15,2013-07-28 01:19:00,
2013-07-27 20:24:00,69.3,60.3,29.95,South,182,0.0,7.0,73,0.00,,,0.00,Wunderground v.1.15,2013-07-28 01:24:00,
2013-07-27 20:34:00,68.4,59.8,29.95,South,182,0.0,7.0,74,0.00,,,0.00,Wunderground v.1.15,2013-07-28 01:34:00,
2013-07-27 20:39:00,68.1,60.2,29.95,South,182,0.0,7.0,76,0.00,,,0.00,Wunderground v.1.15,2013-07-28 01:39:00,
2013-07-27 20:49:00,67.1,60.4,29.95,South,182,0.0,7.0,79,0.00,,,0.00,Wunderground v.1.15,2013-07-28 01:49:00,
2013-07-27 20:54:00,66.8,60.1,29.95,South,182,0.0,7.0,79,0.00,,,0.00,Wunderground v.1.15,2013-07-28 01:54:00,
2013-07-27 21:04:00,66.3,59.9,29.94,South,182,0.0,7.0,80,0.00,,,0.00,Wunderground v.1.15,2013-07-28 02:04:00,
2013-07-27 21:14:00,65.8,59.8,29.94,South,182,0.0,7.0,81,0.00,,,0.00,Wunderground v.1.15,2013-07-28 02:14:00,
2013-07-27 21:19:00,65.5,59.5,29.95,South,182,0.0,7.0,81,0.00,,,0.00,Wunderground v.1.15,2013-07-28 02:19:00,
2013-07-27 21:29:00,64.8,59.2,29.95,South,182,0.0,7.0,82,0.00,,,0.00,Wunderground v.1.15,2013-07-28 02:29:00,
2013-07-27 21:34:00,64.5,59.2,29.95,South,182,0.0,7.0,83,0.00,,,0.00,Wunderground v.1.15,2013-07-28 02:34:00,
2013-07-27 21:44:00,64.0,59.1,29.95,South,182,0.0,7.0,84,0.00,,,0.00,Wunderground v.1.15,2013-07-28 02:44:00,
2013-07-27 21:54:00,63.7,59.1,29.96,South,182,0.0,7.0,85,0.00,,,0.00,Wunderground v.1.15,2013-07-28 02:54:00,
2013-07-27 21:59:00,63.5,59.2,29.96,South,182,0.0,7.0,86,0.00,,,0.00,Wunderground v.1.15,2013-07-28 02:59:00,
2013-07-27 22:05:00,61.8,58.8,29.97,South,182,0.0,7.0,90,0.00,,,0.00,Wunderground v.1.15,2013-07-28 03:05:00,
2013-07-27 22:09:00,63.2,58.9,29.96,South,182,0.0,7.0,86,0.00,,,0.00,Wunderground v.1.15,2013-07-28 03:09:00,
2013-07-27 22:10:00,61.8,58.8,29.97,South,182,0.0,7.0,90,0.00,,,0.00,Wunderground v.1.15,2013-07-28 03:10:00,
2013-07-27 22:15:00,61.6,58.6,29.97,South,182,0.0,7.0,90,0.00,,,0.00,Wunderground v.1.15,2013-07-28 03:15:00,
2013-07-27 22:19:00,62.7,58.8,29.97,South,182,0.0,7.0,87,0.00,,,0.00,Wunderground v.1.15,2013-07-28 03:19:00,
2013-07-27 22:20:00,61.5,58.5,29.97,South,182,0.0,7.0,90,0.00,,,0.00,Wunderground v.1.15,2013-07-28 03:20:00,
2013-07-27 22:25:00,61.3,58.7,29.97,South,182,0.0,7.0,91,0.00,,,0.00,Wunderground v.1.15,2013-07-28 03:25:00,
2013-07-27 22:29:00,62.4,58.8,29.97,South,182,0.0,7.0,88,0.00,,,0.00,Wunderground v.1.15,2013-07-28 03:29:00,
2013-07-27 22:30:00,61.2,58.6,29.97,South,182,0.0,7.0,91,0.00,,,0.00,Wunderground v.1.15,2013-07-28 03:30:00,
2013-07-27 22:35:00,61.2,58.6,29.97,South,182,0.0,7.0,91,0.00,,,0.00,Wunderground v.1.15,2013-07-28 03:35:00,
2013-07-27 22:39:00,62.1,58.8,29.97,South,182,0.0,7.0,89,0.00,,,0.00,Wunderground v.1.15,2013-07-28 03:39:00,
2013-07-27 22:40:00,61.2,58.6,29.97,South,182,0.0,7.0,91,0.00,,,0.00,Wunderground v.1.15,2013-07-28 03:40:00,
2013-07-27 22:44:00,62.0,58.7,29.97,South,182,0.0,7.0,89,0.00,,,0.00,Wunderground v.1.15,2013-07-28 03:44:00,
2013-07-27 22:45:00,61.2,58.6,29.97,South,182,0.0,7.0,91,0.00,,,0.00,Wunderground v.1.15,2013-07-28 03:45:00,
2013-07-27 22:50:00,61.0,58.4,29.97,South,182,0.0,7.0,91,0.00,,,0.00,Wunderground v.1.15,2013-07-28 03:50:00,
2013-07-27 22:54:00,62.0,58.7,29.97,South,182,0.0,7.0,89,0.00,,,0.00,Wunderground v.1.15,2013-07-28 03:54:00,
2013-07-27 22:55:00,61.0,58.7,29.97,South,182,0.0,7.0,92,0.00,,,0.00,Wunderground v.1.15,2013-07-28 03:55:00,
2013-07-27 22:59:00,61.8,58.8,29.97,South,182,0.0,7.0,90,0.00,,,0.00,Wunderground v.1.15,2013-07-28 03:59:00,
2013-07-27 23:00:00,61.0,58.7,29.97,South,182,0.0,7.0,92,0.00,,,0.00,Wunderground v.1.15,2013-07-28 04:00:00,
2013-07-27 23:05:00,61.0,58.7,29.97,South,182,0.0,7.0,92,0.00,,,0.00,Wunderground v.1.15,2013-07-28 04:05:00,
2013-07-27 23:10:00,61.0,58.7,29.97,South,182,0.0,7.0,92,0.00,,,0.00,Wunderground v.1.15,2013-07-28 04:10:00,
2013-07-27 23:15:00,60.9,58.6,29.97,South,182,0.0,7.0,92,0.00,,,0.00,Wunderground v.1.15,2013-07-28 04:15:00,
2013-07-27 23:20:00,60.7,58.4,29.98,South,182,0.0,7.0,92,0.00,,,0.00,Wunderground v.1.15,2013-07-28 04:20:00,
2013-07-27 23:25:00,60.7,58.4,29.98,South,182,0.0,7.0,92,0.00,,,0.00,Wunderground v.1.15,2013-07-28 04:25:00,
2013-07-27 23:30:00,60.5,58.2,29.98,South,182,0.0,7.0,92,0.00,,,0.00,Wunderground v.1.15,2013-07-28 04:30:00,
2013-07-27 23:35:00,60.5,58.2,29.99,South,182,0.0,7.0,92,0.00,,,0.00,Wunderground v.1.15,2013-07-28 04:35:00,
2013-07-27 23:40:00,60.4,58.1,29.99,South,182,0.0,7.0,92,0.00,,,0.00,Wunderground v.1.15,2013-07-28 04:40:00,
2013-07-27 23:45:00,60.2,57.9,29.99,South,182,0.0,7.0,92,0.00,,,0.00,Wunderground v.1.15,2013-07-28 04:45:00,
2013-07-27 23:50:00,60.2,58.2,29.98,South,182,0.0,7.0,93,0.00,,,0.00,Wunderground v.1.15,2013-07-28 04:50:00,
2013-07-27 23:55:00,60.4,58.4,29.98,South,182,0.0,7.0,93,0.00,,,0.00,Wunderground v.1.15,2013-07-28 04:55:00,